Time,TemperatureF,DewpointF,PressureIn,WindDirection,WindDirectionDegrees,WindSpeedMPH,WindSpeedGustMPH,Humidity,HourlyPrecipIn,Conditions,Clouds,dailyrainin,SoftwareType,DateUTC
2013-08-04 00:02:00,82.3,72.4,30.01,East,92,11.5,11.5,72,0.00,CLR,,0.00,WeatherDisplay:10.37,2013-08-04 05:02:00,
2013-08-04 00:07:00,82.1,72.2,30.02,East,92,6.9,6.9,72,0.00,CLR,,0.00,WeatherDisplay:10.37,2013-08-04 05:07:00,
2013-08-04 00:12:00,81.9,72.4,30.02,SE,125,3.5,3.5,73,0.00,CLR,,0.00,WeatherDisplay:10.37,2013-08-04 05:12:00,
2013-08-04 00:17:00,81.7,72.2,30.02,East,90,9.2,9.2,73,0.00,CLR,,0.00,WeatherDisplay:10.37,2013-08-04 05:17:00,
2013-08-04 00:22:00,81.6,72.5,30.02,ESE,108,3.5,3.5,74,0.00,CLR,,0.00,WeatherDisplay:10.37,2013-08-04 05:22:00,
2013-08-04 00:27:00,81.4,72.7,30.02,SSE,154,4.6,4.7,75,0.00,CLR,,0.00,WeatherDisplay:10.37,2013-08-04 05:27:00,
2013-08-04 00:32:00,81.2,72.5,30.02,SE,142,3.5,3.5,75,0.00,CLR,,0.00,WeatherDisplay:10.37,2013-08-04 05:32:00,
2013-08-04 00:37:00,81.1,72.8,30.02,ESE,108,5.8,5.8,76,0.00,CLR,,0.00,WeatherDisplay:10.37,2013-08-04 05:37:00,
2013-08-04 00:42:00,81.0,72.7,30.02,ESE,102,4.6,4.6,76,0.00,CLR,,0.00,WeatherDisplay:10.37,2013-08-04 05:42:00,
2013-08-04 00:47:00,80.9,72.6,30.02,SE,135,4.6,4.6,76,0.00,CLR,,0.00,WeatherDisplay:10.37,2013-08-04 05:47:00,
2013-08-04 00:52:00,80.7,72.8,30.02,ESE,108,4.6,4.6,77,0.00,CLR,,0.00,WeatherDisplay:10.37,2013-08-04 05:52:00,
2013-08-04 00:57:00,80.5,72.6,30.02,ESE,118,3.5,3.5,77,0.00,CLR,,0.00,WeatherDisplay:10.37,2013-08-04 05:57:00,
2013-08-04 01:02:00,80.4,72.9,30.02,ESE,115,3.5,3.5,78,0.00,CLR,,0.00,WeatherDisplay:10.37,2013-08-04 06:02:00,
2013-08-04 01:07:00,80.2,72.7,30.02,ESE,123,4.6,4.6,78,0.00,CLR,,0.00,WeatherDisplay:10.37,2013-08-04 06:07:00,
2013-08-04 01:12:00,80.0,72.9,30.02,ESE,123,3.5,3.5,79,0.00,CLR,,0.00,WeatherDisplay:10.37,2013-08-04 06:12:00,
2013-08-04 01:17:00,79.9,72.8,30.02,East,90,8.1,8.1,79,0.00,CLR,,0.00,WeatherDisplay:10.37,2013-08-04 06:17:00,
2013-08-04 01:22:00,79.7,73.0,30.02,ESE,102,5.8,5.8,80,0.00,CLR,,0.00,WeatherDisplay:10.37,2013-08-04 06:22:00,
2013-08-04 01:27:00,79.6,72.9,30.02,ESE,104,3.5,3.5,80,0.00,CLR,,0.00,WeatherDisplay:10.37,2013-08-04 06:27:00,
2013-08-04 01:32:00,79.4,72.7,30.02,East,86,5.8,5.8,80,0.00,CLR,,0.00,WeatherDisplay:10.37,2013-08-04 06:32:00,
2013-08-04 01:37:00,79.3,73.0,30.02,ESE,112,3.5,3.5,81,0.00,CLR,,0.00,WeatherDisplay:10.37,2013-08-04 06:37:00,
2013-08-04 01:42:00,79.2,72.9,30.02,East,98,2.3,2.3,81,0.00,CLR,,0.00,WeatherDisplay:10.37,2013-08-04 06:42:00,
2013-08-04 01:47:00,79.1,72.8,30.02,ESE,111,2.0,2.0,81,0.00,CLR,,0.00,WeatherDisplay:10.37,2013-08-04 06:47:00,
2013-08-04 01:52:00,79.0,73.0,30.02,East,94,1.2,1.2,82,0.00,CLR,,0.00,WeatherDisplay:10.37,2013-08-04 06:52:00,
2013-08-04 01:57:00,78.9,72.9,30.02,ESE,109,1.2,1.2,82,0.00,CLR,,0.00,WeatherDisplay:10.37,2013-08-04 06:57:00,
2013-08-04 02:02:00,78.7,72.7,30.02,East,88,1.2,1.2,82,0.00,CLR,,0.00,WeatherDisplay:10.37,2013-08-04 07:02:00,
2013-08-04 02:07:00,78.4,72.8,30.02,ESE,104,1.2,1.2,83,0.00,CLR,,0.00,WeatherDisplay:10.37,2013-08-04 07:07:00,
2013-08-04 02:12:00,78.3,72.7,30.02,ESE,105,1.2,1.2,83,0.00,CLR,,0.00,WeatherDisplay:10.37,2013-08-04 07:12:00,
2013-08-04 02:17:00,78.1,72.9,30.02,SE,138,1.2,1.2,84,0.00,CLR,,0.00,WeatherDisplay:10.37,2013-08-04 07:17:00,
2013-08-04 02:22:00,78.1,72.9,30.02,East,96,2.3,2.3,84,0.00,CLR,,0.00,WeatherDisplay:10.37,2013-08-04 07:22:00,
2013-08-04 02:27:00,78.2,73.0,30.02,ESE,103,2.3,2.3,84,0.00,CLR,,0.00,WeatherDisplay:10.37,2013-08-04 07:27:00,
2013-08-04 02:32:00,78.2,73.0,30.03,ESE,105,2.3,2.3,84,0.00,CLR,,0.00,WeatherDisplay:10.37,2013-08-04 07:32:00,
2013-08-04 02:37:00,78.2,73.3,30.03,East,92,2.3,2.3,85,0.00,CLR,,0.00,WeatherDisplay:10.37,2013-08-04 07:37:00,
2013-08-04 02:42:00,78.2,73.3,30.02,SE,125,2.3,2.3,85,0.00,CLR,,0.00,WeatherDisplay:10.37,2013-08-04 07:42:00,
2013-08-04 02:47:00,78.3,73.4,30.02,SE,134,3.5,3.5,85,0.00,CLR,,0.00,WeatherDisplay:10.37,2013-08-04 07:47:00,
2013-08-04 02:52:00,78.3,73.4,30.02,ESE,123,2.3,2.3,85,0.00,CLR,,0.00,WeatherDisplay:10.37,2013-08-04 07:52:00,
2013-08-04 02:57:00,78.4,73.5,30.02,East,98,3.5,3.5,85,0.00,CLR,,0.00,WeatherDisplay:10.37,2013-08-04 07:57:00,
2013-08-04 03:02:00,78.4,73.5,30.03,East,90,3.5,3.5,85,0.00,CLR,,0.00,WeatherDisplay:10.37,2013-08-04 08:02:00,
2013-08-04 03:07:00,78.5,74.0,30.03,ESE,115,2.3,2.3,86,0.00,CLR,,0.00,WeatherDisplay:10.37,2013-08-04 08:07:00,
2013-08-04 03:12:00,78.5,74.0,30.02,SE,133,3.5,3.5,86,0.00,CLR,,0.00,WeatherDisplay:10.37,2013-08-04 08:12:00,
2013-08-04 03:17:00,78.5,74.0,30.03,SE,127,3.5,3.5,86,0.00,CLR,,0.00,WeatherDisplay:10.37,2013-08-04 08:17:00,
2013-08-04 03:22:00,78.5,74.0,30.02,ESE,105,2.3,2.3,86,0.00,CLR,,0.00,WeatherDisplay:10.37,2013-08-04 08:22:00,
2013-08-04 03:27:00,78.4,73.9,30.02,ESE,115,3.0,3.0,86,0.00,CLR,,0.00,WeatherDisplay:10.37,2013-08-04 08:27:00,
2013-08-04 03:32:00,78.3,73.8,30.02,SE,131,3.0,3.0,86,0.00,CLR,,0.00,WeatherDisplay:10.37,2013-08-04 08:32:00,
2013-08-04 03:37:00,78.2,74.0,30.02,ESE,118,1.0,0.0,87,0.00,CLR,,0.00,WeatherDisplay:10.37,2013-08-04 08:37:00,
2013-08-04 03:42:00,78.1,73.9,30.02,SE,134,2.3,2.3,87,0.00,CLR,,0.00,WeatherDisplay:10.37,2013-08-04 08:42:00,
2013-08-04 03:47:00,78.1,73.9,30.02,ESE,115,2.3,2.3,87,0.00,CLR,,0.00,WeatherDisplay:10.37,2013-08-04 08:47:00,
2013-08-04 03:52:00,78.0,73.8,30.02,SE,131,3.5,3.5,87,0.00,CLR,,0.00,WeatherDisplay:10.37,2013-08-04 08:52:00,
2013-08-04 03:57:00,78.0,74.2,30.02,ESE,102,1.2,1.2,88,0.00,CLR,,0.00,WeatherDisplay:10.37,2013-08-04 08:57:00,
2013-08-04 04:02:00,77.9,74.1,30.02,ESE,113,2.3,2.3,88,0.00,CLR,,0.00,WeatherDisplay:10.37,2013-08-04 09:02:00,
2013-08-04 04:07:00,77.9,74.1,30.02,SE,136,1.2,1.2,88,0.00,CLR,,0.00,WeatherDisplay:10.37,2013-08-04 09:07:00,
2013-08-04 04:12:00,77.7,73.9,30.02,SSE,153,0.0,0.3,88,0.00,CLR,,0.00,WeatherDisplay:10.37,2013-08-04 09:12:00,
2013-08-04 04:17:00,77.6,73.8,30.02,SE,137,1.2,1.2,88,0.00,CLR,,0.00,WeatherDisplay:10.37,2013-08-04 09:17:00,
2013-08-04 04:22:00,77.5,74.0,30.01,SE,137,1.2,1.2,89,0.00,CLR,,0.00,WeatherDisplay:10.37,2013-08-04 09:22:00,
2013-08-04 04:27:00,77.5,74.0,30.01,SE,128,1.2,1.2,89,0.00,CLR,,0.00,WeatherDisplay:10.37,2013-08-04 09:27:00,
2013-08-04 04:32:00,77.5,74.0,30.01,SE,136,2.3,2.3,89,0.00,CLR,,0.00,WeatherDisplay:10.37,2013-08-04 09:32:00,
2013-08-04 04:37:00,77.5,74.0,30.01,SSE,156,1.2,0.0,89,0.00,CLR,,0.00,WeatherDisplay:10.37,2013-08-04 09:37:00,
2013-08-04 04:42:00,77.4,73.9,30.01,SE,126,1.2,1.2,89,0.00,CLR,,0.00,WeatherDisplay:10.37,2013-08-04 09:42:00,
2013-08-04 04:47:00,77.3,74.1,30.01,SE,136,1.2,1.2,90,0.00,CLR,,0.00,WeatherDisplay:10.37,2013-08-04 09:47:00,
2013-08-04 04:52:00,77.2,74.0,30.01,SE,133,1.2,0.0,90,0.00,CLR,,0.00,WeatherDisplay:10.37,2013-08-04 09:52:00,
2013-08-04 04:57:00,77.1,73.9,30.01,SE,134,0.0,0.0,90,0.00,CLR,,0.00,WeatherDisplay:10.37,2013-08-04 09:57:00,
2013-08-04 05:02:00,77.0,73.8,30.01,SE,135,0.0,0.0,90,0.00,CLR,,0.00,WeatherDisplay:10.37,2013-08-04 10:02:00,
2013-08-04 05:07:00,77.0,73.8,30.01,SSE,153,0.0,0.0,90,0.00,CLR,,0.00,WeatherDisplay:10.37,2013-08-04 10:07:00,
2013-08-04 05:12:00,77.0,74.2,30.01,SE,136,1.2,1.2,91,0.00,CLR,,0.00,WeatherDisplay:10.37,2013-08-04 10:12:00,
2013-08-04 05:17:00,77.1,74.3,30.00,SE,144,0.0,0.0,91,0.00,CLR,,0.00,WeatherDisplay:10.37,2013-08-04 10:17:00,
2013-08-04 05:22:00,77.0,74.2,30.00,ESE,123,1.2,0.0,91,0.00,CLR,,0.00,WeatherDisplay:10.37,2013-08-04 10:22:00,
2013-08-04 05:27:00,77.0,74.2,30.00,ESE,109,1.0,1.0,91,0.00,CLR,,0.00,WeatherDisplay:10.37,2013-08-04 10:27:00,
2013-08-04 05:32:00,77.0,74.2,30.00,ESE,121,1.2,1.2,91,0.00,CLR,,0.00,WeatherDisplay:10.37,2013-08-04 10:32:00,
2013-08-04 05:37:00,76.9,74.1,30.00,SE,146,0.0,0.0,91,0.00,CLR,,0.00,WeatherDisplay:10.37,2013-08-04 10:37:00,
2013-08-04 05:42:00,76.7,73.9,30.00,SE,144,1.2,1.2,91,0.00,CLR,,0.00,WeatherDisplay:10.37,2013-08-04 10:42:00,
2013-08-04 05:47:00,76.6,73.8,30.00,SE,140,0.0,0.0,91,0.00,CLR,,0.00,WeatherDisplay:10.37,2013-08-04 10:47:00,
2013-08-04 05:52:00,76.5,73.7,30.00,SSE,155,0.0,0.0,91,0.00,CLR,,0.00,WeatherDisplay:10.37,2013-08-04 10:52:00,
2013-08-04 05:57:00,76.4,73.9,30.00,SSE,149,0.0,0.0,92,0.00,CLR,,0.00,WeatherDisplay:10.37,2013-08-04 10:57:00,
2013-08-04 06:02:00,76.4,73.9,30.00,SSE,167,0.0,0.0,92,0.00,CLR,,0.00,WeatherDisplay:10.37,2013-08-04 11:02:00,
2013-08-04 06:07:00,76.3,73.8,30.00,SE,142,1.2,1.2,92,0.00,CLR,,0.00,WeatherDisplay:10.37,2013-08-04 11:07:00,
2013-08-04 06:12:00,76.3,73.8,30.00,SE,129,0.0,0.0,92,0.00,CLR,,0.00,WeatherDisplay:10.37,2013-08-04 11:12:00,
2013-08-04 06:17:00,76.2,73.7,30.00,SE,136,0.0,0.0,92,0.00,CLR,,0.00,WeatherDisplay:10.37,2013-08-04 11:17:00,
2013-08-04 06:22:00,76.2,73.7,30.00,SE,144,0.0,0.0,92,0.00,CLR,,0.00,WeatherDisplay:10.37,2013-08-04 11:22:00,
2013-08-04 06:27:00,76.2,73.7,30.00,SE,144,0.0,0.0,92,0.00,CLR,,0.00,WeatherDisplay:10.37,2013-08-04 11:27:00,
2013-08-04 06:32:00,76.2,73.7,30.01,SE,140,0.0,0.0,92,0.00,CLR,,0.00,WeatherDisplay:10.37,2013-08-04 11:32:00,
2013-08-04 06:37:00,76.1,73.6,30.01,SE,140,0.0,0.0,92,0.00,CLR,,0.00,WeatherDisplay:10.37,2013-08-04 11:37:00,
2013-08-04 06:42:00,76.1,73.9,30.01,SE,140,0.0,0.0,93,0.00,CLR,,0.00,WeatherDisplay:10.37,2013-08-04 11:42:00,
2013-08-04 06:47:00,76.0,73.8,30.01,SE,140,0.0,0.0,93,0.00,CLR,,0.00,WeatherDisplay:10.37,2013-08-04 11:47:00,
2013-08-04 06:52:00,76.0,73.8,30.01,SE,140,0.0,0.0,93,0.00,CLR,,0.00,WeatherDisplay:10.37,2013-08-04 11:52:00,
2013-08-04 06:57:00,75.9,73.7,30.02,SE,140,0.0,0.0,93,0.00,CLR,,0.00,WeatherDisplay:10.37,2013-08-04 11:57:00,
2013-08-04 07:02:00,76.0,73.8,30.02,SE,140,0.0,0.0,93,0.00,CLR,,0.00,WeatherDisplay:10.37,2013-08-04 12:02:00,
2013-08-04 07:07:00,76.1,73.9,30.02,SE,140,0.0,0.0,93,0.00,CLR,,0.00,WeatherDisplay:10.37,2013-08-04 12:07:00,
2013-08-04 07:12:00,76.1,73.9,30.02,SE,140,0.0,0.0,93,0.00,CLR,,0.00,WeatherDisplay:10.37,2013-08-04 12:12:00,
2013-08-04 07:17:00,76.2,74.0,30.02,SE,140,0.0,0.0,93,0.00,CLR,,0.00,WeatherDisplay:10.37,2013-08-04 12:17:00,
2013-08-04 07:22:00,76.3,74.1,30.02,SE,140,0.0,0.0,93,0.00,CLR,,0.00,WeatherDisplay:10.37,2013-08-04 12:22:00,
2013-08-04 07:27:00,76.4,74.2,30.03,SE,140,0.0,0.0,93,0.00,CLR,,0.00,WeatherDisplay:10.37,2013-08-04 12:27:00,
2013-08-04 07:32:00,76.5,74.3,30.03,ESE,110,1.2,1.2,93,0.00,CLR,,0.00,WeatherDisplay:10.37,2013-08-04 12:32:00,
2013-08-04 07:37:00,76.6,74.4,30.03,ESE,106,0.0,0.0,93,0.00,CLR,,0.00,WeatherDisplay:10.37,2013-08-04 12:37:00,
2013-08-04 07:42:00,76.7,74.5,30.03,East,96,0.0,0.0,93,0.00,CLR,,0.00,WeatherDisplay:10.37,2013-08-04 12:42:00,
2013-08-04 07:47:00,77.0,74.8,30.03,ESE,106,2.3,2.3,93,0.00,CLR,,0.00,WeatherDisplay:10.37,2013-08-04 12:47:00,
2013-08-04 07:52:00,77.1,74.9,30.03,ESE,107,0.0,0.0,93,0.00,CLR,,0.00,WeatherDisplay:10.37,2013-08-04 12:52:00,
2013-08-04 07:57:00,77.3,75.1,30.04,East,98,1.2,1.2,93,0.00,CLR,,0.00,WeatherDisplay:10.37,2013-08-04 12:57:00,
2013-08-04 08:02:00,77.6,75.4,30.04,East,94,3.5,3.5,93,0.00,CLR,,0.00,WeatherDisplay:10.37,2013-08-04 13:02:00,
2013-08-04 08:07:00,77.9,75.4,30.04,SE,125,3.5,3.5,92,0.00,CLR,,0.00,WeatherDisplay:10.37,2013-08-04 13:07:00,
2013-08-04 08:12:00,78.3,75.8,30.04,SE,141,3.5,3.5,92,0.00,CLR,,0.00,WeatherDisplay:10.37,2013-08-04 13:12:00,
2013-08-04 08:17:00,78.6,75.8,30.03,SE,138,3.5,3.5,91,0.00,CLR,,0.00,WeatherDisplay:10.37,2013-08-04 13:17:00,
2013-08-04 08:22:00,79.0,75.8,30.04,SE,146,3.5,3.5,90,0.00,CLR,,0.00,WeatherDisplay:10.37,2013-08-04 13:22:00,
2013-08-04 08:27:00,79.3,76.1,30.04,ESE,120,2.3,2.3,90,0.00,CLR,,0.00,WeatherDisplay:10.37,2013-08-04 13:27:00,
2013-08-04 08:32:00,79.6,76.1,30.04,SE,146,4.6,4.6,89,0.00,CLR,,0.00,WeatherDisplay:10.37,2013-08-04 13:32:00,
2013-08-04 08:37:00,79.8,75.9,30.04,SE,141,4.6,4.6,88,0.00,CLR,,0.00,WeatherDisplay:10.37,2013-08-04 13:37:00,
2013-08-04 08:43:00,79.9,75.7,30.04,SSE,163,5.8,5.8,87,0.00,CLR,,0.00,WeatherDisplay:10.37,2013-08-04 13:43:00,
2013-08-04 08:48:00,79.9,75.7,30.04,SE,144,8.1,8.1,87,0.00,CLR,,0.00,WeatherDisplay:10.37,2013-08-04 13:48:00,
2013-08-04 08:53:00,79.9,75.7,30.04,ESE,117,8.1,8.1,87,0.00,CLR,,0.00,WeatherDisplay:10.37,2013-08-04 13:53:00,
2013-08-04 08:58:00,80.1,75.9,30.04,SE,133,6.9,6.9,87,0.00,CLR,,0.00,WeatherDisplay:10.37,2013-08-04 13:58:00,
2013-08-04 09:03:00,80.3,75.7,30.04,SE,141,4.6,4.6,86,0.00,CLR,,0.00,WeatherDisplay:10.37,2013-08-04 14:03:00,
2013-08-04 09:08:00,80.5,75.6,30.04,ESE,122,8.1,8.1,85,0.00,CLR,,0.00,WeatherDisplay:10.37,2013-08-04 14:08:00,
2013-08-04 09:13:00,80.6,75.7,30.04,SE,126,5.8,5.8,85,0.00,CLR,,0.00,WeatherDisplay:10.37,2013-08-04 14:13:00,
2013-08-04 09:18:00,80.8,75.5,30.04,SSE,151,4.6,4.6,84,0.00,CLR,,0.00,WeatherDisplay:10.37,2013-08-04 14:18:00,
2013-08-04 09:23:00,81.3,76.0,30.05,SW,223,2.3,2.3,84,0.00,CLR,,0.00,WeatherDisplay:10.37,2013-08-04 14:23:00,
2013-08-04 09:27:00,81.5,75.5,30.05,SE,138,8.1,8.1,82,0.00,CLR,,0.00,WeatherDisplay:10.37,2013-08-04 14:27:00,
2013-08-04 09:33:00,81.6,75.6,30.05,South,187,6.9,6.9,82,0.00,CLR,,0.00,WeatherDisplay:10.37,2013-08-04 14:33:00,
2013-08-04 09:38:00,81.6,75.2,30.05,South,182,6.9,6.9,81,0.00,CLR,,0.00,WeatherDisplay:10.37,2013-08-04 14:38:00,
2013-08-04 09:43:00,82.1,75.7,30.05,SE,144,6.9,6.9,81,0.00,CLR,,0.00,WeatherDisplay:10.37,2013-08-04 14:43:00,
2013-08-04 09:48:00,82.5,75.7,30.05,South,175,5.8,5.8,80,0.00,CLR,,0.00,WeatherDisplay:10.37,2013-08-04 14:48:00,
2013-08-04 09:53:00,82.7,75.1,30.05,SE,136,8.1,8.1,78,0.00,CLR,,0.00,WeatherDisplay:10.37,2013-08-04 14:53:00,
2013-08-04 09:58:00,83.2,75.2,30.05,SSE,157,8.1,8.1,77,0.00,CLR,,0.00,WeatherDisplay:10.37,2013-08-04 14:58:00,
2013-08-04 10:03:00,83.1,75.1,30.05,South,182,4.6,4.6,77,0.00,CLR,,0.00,WeatherDisplay:10.37,2013-08-04 15:03:00,
2013-08-04 10:08:00,83.4,75.0,30.05,SE,136,6.9,6.9,76,0.00,CLR,,0.00,WeatherDisplay:10.37,2013-08-04 15:08:00,
2013-08-04 10:13:00,83.2,74.8,30.05,SE,138,5.8,5.8,76,0.00,CLR,,0.00,WeatherDisplay:10.37,2013-08-04 15:13:00,
2013-08-04 10:18:00,83.4,75.4,30.05,ESE,119,5.0,5.0,77,0.00,CLR,,0.00,WeatherDisplay:10.37,2013-08-04 15:18:00,
2013-08-04 10:23:00,83.4,75.0,30.05,ESE,111,3.5,3.5,76,0.00,CLR,,0.00,WeatherDisplay:10.37,2013-08-04 15:23:00,
2013-08-04 10:28:00,84.0,76.0,30.05,SSE,155,3.5,3.5,77,0.00,CLR,,0.00,WeatherDisplay:10.37,2013-08-04 15:28:00,
2013-08-04 10:33:00,85.2,75.1,30.05,East,92,8.1,8.1,72,0.00,CLR,,0.00,WeatherDisplay:10.37,2013-08-04 15:33:00,
2013-08-04 10:38:00,84.9,74.9,30.05,ESE,120,5.8,5.8,72,0.00,CLR,,0.00,WeatherDisplay:10.37,2013-08-04 15:38:00,
2013-08-04 10:43:00,84.7,74.7,30.05,WSW,237,4.6,4.6,72,0.00,CLR,,0.00,WeatherDisplay:10.37,2013-08-04 15:43:00,
2013-08-04 10:48:00,84.9,74.9,30.05,SE,142,4.6,4.6,72,0.00,CLR,,0.00,WeatherDisplay:10.37,2013-08-04 15:48:00,
2013-08-04 10:53:00,85.9,75.0,30.04,SE,146,3.5,3.5,70,0.00,CLR,,0.00,WeatherDisplay:10.37,2013-08-04 15:53:00,
2013-08-04 10:58:00,86.1,74.3,30.05,SE,136,6.9,6.9,68,0.00,CLR,,0.00,WeatherDisplay:10.37,2013-08-04 15:58:00,
2013-08-04 11:03:00,85.9,74.1,30.05,SE,130,8.1,8.1,68,0.00,CLR,,0.00,WeatherDisplay:10.37,2013-08-04 16:03:00,
2013-08-04 11:08:00,85.5,74.6,30.05,SSE,156,3.5,3.5,70,0.00,CLR,,0.00,WeatherDisplay:10.37,2013-08-04 16:08:00,
2013-08-04 11:13:00,85.8,74.4,30.05,SW,218,5.8,5.8,69,0.00,CLR,,0.00,WeatherDisplay:10.37,2013-08-04 16:13:00,
2013-08-04 11:18:00,86.0,73.8,30.04,SW,227,6.9,6.9,67,0.00,CLR,,0.00,WeatherDisplay:10.37,2013-08-04 16:18:00,
2013-08-04 11:23:00,86.6,74.8,30.04,ESE,121,3.5,3.5,68,0.00,CLR,,0.00,WeatherDisplay:10.37,2013-08-04 16:23:00,
2013-08-04 11:28:00,87.7,74.9,30.04,SW,215,4.6,4.6,66,0.00,CLR,,0.00,WeatherDisplay:10.37,2013-08-04 16:28:00,
2013-08-04 11:33:00,88.9,74.7,30.04,East,80,10.4,10.4,63,0.00,CLR,,0.00,WeatherDisplay:10.37,2013-08-04 16:33:00,
2013-08-04 11:38:00,88.6,73.9,30.04,SE,146,2.3,2.3,62,0.00,CLR,,0.00,WeatherDisplay:10.37,2013-08-04 16:38:00,
2013-08-04 11:43:00,88.5,74.3,30.04,ESE,117,8.1,8.1,63,0.00,CLR,,0.00,WeatherDisplay:10.37,2013-08-04 16:43:00,
2013-08-04 11:48:00,88.1,74.4,30.04,SE,141,3.5,3.5,64,0.00,CLR,,0.00,WeatherDisplay:10.37,2013-08-04 16:48:00,
2013-08-04 11:53:00,88.1,74.4,30.03,SE,136,6.9,6.9,64,0.00,CLR,,0.00,WeatherDisplay:10.37,2013-08-04 16:53:00,
2013-08-04 11:58:00,89.2,75.4,30.03,SSE,147,3.5,3.5,64,0.00,CLR,,0.00,WeatherDisplay:10.37,2013-08-04 16:58:00,
2013-08-04 12:03:00,90.1,73.8,30.03,ESE,112,8.1,8.1,59,0.00,CLR,,0.00,WeatherDisplay:10.37,2013-08-04 17:03:00,
2013-08-04 12:08:00,89.9,74.2,30.03,East,99,10.4,10.4,60,0.00,CLR,,0.00,WeatherDisplay:10.37,2013-08-04 17:08:00,
2013-08-04 12:13:00,89.7,73.5,30.03,South,173,9.2,9.2,59,0.00,CLR,,0.00,WeatherDisplay:10.37,2013-08-04 17:13:00,
2013-08-04 12:18:00,90.3,73.5,30.03,SE,132,10.4,10.4,58,0.00,CLR,,0.00,WeatherDisplay:10.37,2013-08-04 17:18:00,
2013-08-04 12:23:00,90.6,73.3,30.03,SE,144,15.0,15.0,57,0.00,CLR,,0.00,WeatherDisplay:10.37,2013-08-04 17:23:00,
2013-08-04 12:28:00,90.7,73.9,30.03,ESE,105,6.9,6.9,58,0.00,CLR,,0.00,WeatherDisplay:10.37,2013-08-04 17:28:00,
2013-08-04 12:33:00,91.4,74.0,30.02,South,186,10.4,10.4,57,0.00,CLR,,0.00,WeatherDisplay:10.37,2013-08-04 17:33:00,
2013-08-04 12:38:00,91.5,74.1,30.02,SSE,155,6.9,6.9,57,0.00,CLR,,0.00,WeatherDisplay:10.37,2013-08-04 17:38:00,
2013-08-04 12:43:00,91.9,73.4,30.02,SE,146,5.8,5.8,55,0.00,CLR,,0.00,WeatherDisplay:10.37,2013-08-04 17:43:00,
2013-08-04 12:48:00,92.1,73.1,30.02,ENE,73,9.2,9.2,54,0.00,CLR,,0.00,WeatherDisplay:10.37,2013-08-04 17:48:00,
2013-08-04 12:53:00,91.7,72.7,30.01,NE,41,6.0,6.0,54,0.00,CLR,,0.00,WeatherDisplay:10.37,2013-08-04 17:53:00,
2013-08-04 12:58:00,91.6,72.0,30.01,SSE,153,8.1,8.1,53,0.00,CLR,,0.00,WeatherDisplay:10.37,2013-08-04 17:58:00,
2013-08-04 13:03:00,91.7,72.7,30.01,East,94,3.0,3.0,54,0.00,CLR,,0.00,WeatherDisplay:10.37,2013-08-04 18:03:00,
2013-08-04 13:08:00,92.4,72.8,30.01,ESE,113,9.2,9.2,53,0.00,CLR,,0.00,WeatherDisplay:10.37,2013-08-04 18:08:00,
2013-08-04 13:13:00,91.9,72.3,30.01,East,99,13.0,13.0,53,0.00,CLR,,0.00,WeatherDisplay:10.37,2013-08-04 18:13:00,
2013-08-04 13:18:00,92.2,72.6,30.00,East,101,11.5,11.5,53,0.00,CLR,,0.00,WeatherDisplay:10.37,2013-08-04 18:18:00,
2013-08-04 13:23:00,92.8,72.0,30.00,East,86,10.4,10.4,51,0.00,CLR,,0.00,WeatherDisplay:10.37,2013-08-04 18:23:00,
2013-08-04 13:28:00,92.4,72.2,30.00,SE,146,9.2,9.2,52,0.00,CLR,,0.00,WeatherDisplay:10.37,2013-08-04 18:28:00,
2013-08-04 13:33:00,92.7,71.9,30.00,East,84,10.4,10.4,51,0.00,CLR,,0.00,WeatherDisplay:10.37,2013-08-04 18:33:00,
2013-08-04 13:38:00,93.3,72.5,30.00,SE,135,2.3,2.7,51,0.00,CLR,,0.00,WeatherDisplay:10.37,2013-08-04 18:38:00,
2013-08-04 13:43:00,93.4,71.4,30.00,SSE,155,5.8,5.8,49,0.00,CLR,,0.00,WeatherDisplay:10.37,2013-08-04 18:43:00,
2013-08-04 13:48:00,92.8,72.0,29.99,SE,146,6.9,6.9,51,0.00,CLR,,0.00,WeatherDisplay:10.37,2013-08-04 18:48:00,
2013-08-04 13:53:00,93.1,72.9,29.99,South,171,4.6,4.6,52,0.00,CLR,,0.00,WeatherDisplay:10.37,2013-08-04 18:53:00,
2013-08-04 13:58:00,94.2,71.5,29.99,ESE,105,12.7,12.7,48,0.00,CLR,,0.00,WeatherDisplay:10.37,2013-08-04 18:58:00,
2013-08-04 14:03:00,93.7,70.4,29.99,South,172,9.2,9.2,47,0.00,CLR,,0.00,WeatherDisplay:10.37,2013-08-04 19:03:00,
2013-08-04 14:08:00,94.2,71.5,29.99,ESE,118,7.0,7.0,48,0.00,CLR,,0.00,WeatherDisplay:10.37,2013-08-04 19:08:00,
2013-08-04 14:13:00,94.8,71.4,29.98,SE,142,3.5,5.3,47,0.00,CLR,,0.00,WeatherDisplay:10.37,2013-08-04 19:13:00,
2013-08-04 14:18:00,94.3,71.0,29.98,East,91,10.4,10.4,47,0.00,CLR,,0.00,WeatherDisplay:10.37,2013-08-04 19:18:00,
2013-08-04 14:23:00,94.1,70.8,29.98,SE,128,8.1,8.1,47,0.00,CLR,,0.00,WeatherDisplay:10.37,2013-08-04 19:23:00,
2013-08-04 14:28:00,94.3,72.2,29.98,SE,144,8.1,8.1,49,0.00,CLR,,0.00,WeatherDisplay:10.37,2013-08-04 19:28:00,
2013-08-04 14:33:00,95.1,71.7,29.97,East,79,4.6,4.6,47,0.00,CLR,,0.00,WeatherDisplay:10.37,2013-08-04 19:33:00,
2013-08-04 14:38:00,95.0,71.0,29.97,SSE,148,10.4,10.4,46,0.00,CLR,,0.00,WeatherDisplay:10.37,2013-08-04 19:38:00,
2013-08-04 14:43:00,95.4,71.3,29.97,ESE,105,7.0,7.0,46,0.00,CLR,,0.00,WeatherDisplay:10.37,2013-08-04 19:43:00,
2013-08-04 14:48:00,95.2,70.5,29.97,SSE,159,6.9,6.9,45,0.00,CLR,,0.00,WeatherDisplay:10.37,2013-08-04 19:48:00,
2013-08-04 14:49:00,95.1,70.4,29.96,ESE,108,9.2,9.2,45,0.00,CLR,,0.00,WeatherDisplay:10.37,2013-08-04 19:49:00,
2013-08-04 14:54:00,94.7,71.3,29.96,ENE,78,11.5,11.5,47,0.00,CLR,,0.00,WeatherDisplay:10.37,2013-08-04 19:54:00,
2013-08-04 14:59:00,95.4,71.3,29.96,East,93,6.9,6.9,46,0.00,CLR,,0.00,WeatherDisplay:10.37,2013-08-04 19:59:00,
2013-08-04 15:04:00,95.8,71.7,29.96,SE,126,3.5,3.5,46,0.00,CLR,,0.00,WeatherDisplay:10.37,2013-08-04 20:04:00,
2013-08-04 15:09:00,96.6,71.1,29.95,ENE,64,11.5,11.5,44,0.00,CLR,,0.00,WeatherDisplay:10.37,2013-08-04 20:09:00,
2013-08-04 15:14:00,97.1,70.9,29.95,ESE,113,10.4,10.4,43,0.00,CLR,,0.00,WeatherDisplay:10.37,2013-08-04 20:14:00,
2013-08-04 15:19:00,96.5,71.0,29.95,East,98,9.2,9.2,44,0.00,CLR,,0.00,WeatherDisplay:10.37,2013-08-04 20:19:00,
2013-08-04 15:24:00,97.0,71.5,29.94,ESE,115,9.0,9.0,44,0.00,CLR,,0.00,WeatherDisplay:10.37,2013-08-04 20:24:00,
2013-08-04 15:29:00,96.9,71.4,29.94,East,85,11.5,11.5,44,0.00,CLR,,0.00,WeatherDisplay:10.37,2013-08-04 20:29:00,
2013-08-04 15:34:00,97.3,71.1,29.94,ESE,120,8.1,8.1,43,0.00,CLR,,0.00,WeatherDisplay:10.37,2013-08-04 20:34:00,
2013-08-04 15:39:00,97.4,71.8,29.94,SE,134,11.5,11.5,44,0.00,CLR,,0.00,WeatherDisplay:10.37,2013-08-04 20:39:00,
2013-08-04 15:44:00,96.9,70.7,29.94,ESE,103,11.0,11.0,43,0.00,CLR,,0.00,WeatherDisplay:10.37,2013-08-04 20:44:00,
2013-08-04 15:49:00,97.4,70.5,29.94,ESE,123,4.6,4.6,42,0.00,CLR,,0.00,WeatherDisplay:10.37,2013-08-04 20:49:00,
2013-08-04 15:54:00,98.2,71.2,29.93,ESE,103,8.0,8.0,42,0.00,CLR,,0.00,WeatherDisplay:10.37,2013-08-04 20:54:00,
2013-08-04 15:59:00,97.6,69.9,29.93,ESE,106,13.8,13.8,41,0.00,CLR,,0.00,WeatherDisplay:10.37,2013-08-04 20:59:00,
2013-08-04 16:04:00,96.8,69.9,29.93,SE,128,9.2,9.2,42,0.00,CLR,,0.00,WeatherDisplay:10.37,2013-08-04 21:04:00,
2013-08-04 16:09:00,96.2,69.4,29.93,SE,130,6.9,6.9,42,0.00,CLR,,0.00,WeatherDisplay:10.37,2013-08-04 21:09:00,
2013-08-04 16:14:00,96.1,69.3,29.93,SE,142,8.1,8.1,42,0.00,CLR,,0.00,WeatherDisplay:10.37,2013-08-04 21:14:00,
2013-08-04 16:19:00,96.1,69.3,29.93,SE,146,8.1,8.1,42,0.00,CLR,,0.00,WeatherDisplay:10.37,2013-08-04 21:19:00,
2013-08-04 16:24:00,96.1,68.6,29.93,SE,136,9.2,9.2,41,0.00,CLR,,0.00,WeatherDisplay:10.37,2013-08-04 21:24:00,
2013-08-04 16:29:00,96.4,68.9,29.92,ESE,113,9.2,9.2,41,0.00,CLR,,0.00,WeatherDisplay:10.37,2013-08-04 21:29:00,
2013-08-04 16:34:00,96.2,68.7,29.92,ESE,111,10.4,10.4,41,0.00,CLR,,0.00,WeatherDisplay:10.37,2013-08-04 21:34:00,
2013-08-04 16:39:00,97.1,68.8,29.92,East,90,3.5,3.5,40,0.00,CLR,,0.00,WeatherDisplay:10.37,2013-08-04 21:39:00,
2013-08-04 16:44:00,97.0,68.7,29.92,ENE,77,15.0,15.0,40,0.00,CLR,,0.00,WeatherDisplay:10.37,2013-08-04 21:44:00,
2013-08-04 16:49:00,96.7,69.1,29.92,ESE,112,8.1,8.1,41,0.00,CLR,,0.00,WeatherDisplay:10.37,2013-08-04 21:49:00,
2013-08-04 16:54:00,97.5,69.1,29.92,East,94,11.5,11.5,40,0.00,CLR,,0.00,WeatherDisplay:10.37,2013-08-04 21:54:00,
2013-08-04 16:59:00,98.1,68.9,29.92,ESE,107,10.4,10.4,39,0.00,CLR,,0.00,WeatherDisplay:10.37,2013-08-04 21:59:00,
2013-08-04 17:04:00,98.7,69.4,29.91,ENE,74,3.5,3.5,39,0.00,CLR,,0.00,WeatherDisplay:10.37,2013-08-04 22:04:00,
2013-08-04 17:09:00,98.3,68.3,29.92,East,89,7.0,7.0,38,0.00,CLR,,0.00,WeatherDisplay:10.37,2013-08-04 22:09:00,
2013-08-04 17:14:00,97.7,67.8,29.91,East,99,11.5,11.5,38,0.00,CLR,,0.00,WeatherDisplay:10.37,2013-08-04 22:14:00,
2013-08-04 17:19:00,97.1,67.3,29.91,SSW,213,6.9,6.9,38,0.00,CLR,,0.00,WeatherDisplay:10.37,2013-08-04 22:19:00,
2013-08-04 17:24:00,97.1,68.0,29.91,SSW,195,3.5,3.5,39,0.00,CLR,,0.00,WeatherDisplay:10.37,2013-08-04 22:24:00,
2013-08-04 17:29:00,97.9,68.7,29.91,East,88,4.6,4.6,39,0.00,CLR,,0.00,WeatherDisplay:10.37,2013-08-04 22:29:00,
2013-08-04 17:34:00,98.2,68.2,29.91,East,93,11.5,11.5,38,0.00,CLR,,0.00,WeatherDisplay:10.37,2013-08-04 22:34:00,
2013-08-04 17:39:00,98.5,67.7,29.91,ENE,69,8.1,8.1,37,0.00,CLR,,0.00,WeatherDisplay:10.37,2013-08-04 22:39:00,
2013-08-04 17:44:00,98.4,68.4,29.91,ESE,104,8.1,8.1,38,0.00,CLR,,0.00,WeatherDisplay:10.37,2013-08-04 22:44:00,
2013-08-04 17:49:00,99.0,69.0,29.91,ESE,108,4.6,4.6,38,0.00,CLR,,0.00,WeatherDisplay:10.37,2013-08-04 22:49:00,
2013-08-04 17:54:00,99.0,69.0,29.91,East,101,8.1,8.1,38,0.00,CLR,,0.00,WeatherDisplay:10.37,2013-08-04 22:54:00,
2013-08-04 17:59:00,98.0,68.8,29.91,ESE,102,8.1,8.1,39,0.00,CLR,,0.00,WeatherDisplay:10.37,2013-08-04 22:59:00,
2013-08-04 18:04:00,98.3,69.1,29.90,ENE,67,4.6,4.6,39,0.00,CLR,,0.00,WeatherDisplay:10.37,2013-08-04 23:04:00,
2013-08-04 18:09:00,98.5,68.5,29.90,ESE,107,11.5,11.5,38,0.00,CLR,,0.00,WeatherDisplay:10.37,2013-08-04 23:09:00,
2013-08-04 18:14:00,98.2,68.2,29.90,ESE,115,12.7,12.7,38,0.00,CLR,,0.00,WeatherDisplay:10.37,2013-08-04 23:14:00,
2013-08-04 18:19:00,97.6,67.7,29.90,ESE,123,11.5,11.5,38,0.00,CLR,,0.00,WeatherDisplay:10.37,2013-08-04 23:19:00,
2013-08-04 18:23:00,97.1,68.0,29.90,ESE,102,11.5,11.5,39,0.00,CLR,,0.00,WeatherDisplay:10.37,2013-08-04 23:23:00,
2013-08-04 18:28:00,96.9,68.6,29.90,ESE,107,6.9,6.9,40,0.00,CLR,,0.00,WeatherDisplay:10.37,2013-08-04 23:28:00,
2013-08-04 18:34:00,96.7,67.7,29.90,ENE,78,10.4,10.4,39,0.00,CLR,,0.00,WeatherDisplay:10.37,2013-08-04 23:34:00,
2013-08-04 18:39:00,96.4,68.1,29.90,East,93,9.2,9.2,40,0.00,CLR,,0.00,WeatherDisplay:10.37,2013-08-04 23:39:00,
2013-08-04 18:44:00,96.1,68.6,29.90,East,91,9.2,9.2,41,0.00,CLR,,0.00,WeatherDisplay:10.37,2013-08-04 23:44:00,
2013-08-04 18:49:00,96.1,70.0,29.90,ENE,73,15.0,15.0,43,0.00,CLR,,0.00,WeatherDisplay:10.37,2013-08-04 23:49:00,
2013-08-04 18:54:00,95.7,70.3,29.89,NE,39,3.5,3.5,44,0.00,CLR,,0.00,WeatherDisplay:10.37,2013-08-04 23:54:00,
2013-08-04 18:59:00,95.5,70.1,29.89,East,90,6.0,6.0,44,0.00,CLR,,0.00,WeatherDisplay:10.37,2013-08-04 23:59:00,
2013-08-04 19:04:00,95.6,70.2,29.90,ESE,110,6.9,6.9,44,0.00,CLR,,0.00,WeatherDisplay:10.37,2013-08-05 00:04:00,
2013-08-04 19:09:00,95.5,70.1,29.90,East,84,15.0,15.0,44,0.00,CLR,,0.00,WeatherDisplay:10.37,2013-08-05 00:09:00,
2013-08-04 19:14:00,95.4,71.3,29.90,East,86,13.8,13.8,46,0.00,CLR,,0.00,WeatherDisplay:10.37,2013-08-05 00:14:00,
2013-08-04 19:19:00,95.1,71.1,29.90,ESE,103,12.7,12.7,46,0.00,CLR,,0.00,WeatherDisplay:10.37,2013-08-05 00:19:00,
2013-08-04 19:23:00,94.8,71.4,29.90,ESE,103,10.4,10.4,47,0.00,CLR,,0.00,WeatherDisplay:10.37,2013-08-05 00:23:00,
2013-08-04 19:29:00,94.6,71.2,29.91,ESE,117,9.2,9.2,47,0.00,CLR,,0.00,WeatherDisplay:10.37,2013-08-05 00:29:00,
2013-08-04 19:34:00,94.5,71.2,29.90,ESE,119,15.0,15.0,47,0.00,CLR,,0.00,WeatherDisplay:10.37,2013-08-05 00:34:00,
2013-08-04 19:39:00,94.3,71.6,29.90,ESE,112,12.7,12.7,48,0.00,CLR,,0.00,WeatherDisplay:10.37,2013-08-05 00:39:00,
2013-08-04 19:44:00,94.0,71.3,29.91,ESE,109,12.7,12.7,48,0.00,CLR,,0.00,WeatherDisplay:10.37,2013-08-05 00:44:00,
2013-08-04 19:49:00,93.8,71.1,29.91,ENE,78,10.4,10.4,48,0.00,CLR,,0.00,WeatherDisplay:10.37,2013-08-05 00:49:00,
2013-08-04 19:53:00,93.6,71.0,29.91,SE,126,13.8,13.8,48,0.00,CLR,,0.00,WeatherDisplay:10.37,2013-08-05 00:53:00,
2013-08-04 19:59:00,93.1,71.1,29.91,SE,128,12.7,12.7,49,0.00,CLR,,0.00,WeatherDisplay:10.37,2013-08-05 00:59:00,
2013-08-04 20:04:00,92.9,71.5,29.91,ESE,115,16.1,16.1,50,0.00,CLR,,0.00,WeatherDisplay:10.37,2013-08-05 01:04:00,
2013-08-04 20:08:00,92.6,71.2,29.91,East,101,9.2,9.2,50,0.00,CLR,,0.00,WeatherDisplay:10.37,2013-08-05 01:08:00,
2013-08-04 20:14:00,92.3,71.6,29.91,East,95,19.6,19.6,51,0.00,CLR,,0.00,WeatherDisplay:10.37,2013-08-05 01:14:00,
2013-08-04 20:19:00,92.0,71.3,29.92,ESE,111,15.0,15.0,51,0.00,CLR,,0.00,WeatherDisplay:10.37,2013-08-05 01:19:00,
2013-08-04 20:24:00,91.7,71.6,29.92,East,89,16.1,16.1,52,0.00,CLR,,0.00,WeatherDisplay:10.37,2013-08-05 01:24:00,
2013-08-04 20:28:00,91.4,71.9,29.92,East,90,11.5,11.5,53,0.00,CLR,,0.00,WeatherDisplay:10.37,2013-08-05 01:28:00,
2013-08-04 20:34:00,91.0,72.0,29.92,East,80,9.2,9.2,54,0.00,CLR,,0.00,WeatherDisplay:10.37,2013-08-05 01:34:00,
2013-08-04 20:39:00,90.7,72.3,29.92,East,91,13.8,13.8,55,0.00,CLR,,0.00,WeatherDisplay:10.37,2013-08-05 01:39:00,
2013-08-04 20:44:00,90.4,72.0,29.92,ESE,109,10.4,10.4,55,0.00,CLR,,0.00,WeatherDisplay:10.37,2013-08-05 01:44:00,
2013-08-04 20:49:00,90.2,72.4,29.93,East,87,11.5,11.5,56,0.00,CLR,,0.00,WeatherDisplay:10.37,2013-08-05 01:49:00,
2013-08-04 20:54:00,90.0,72.2,29.93,East,101,11.5,11.5,56,0.00,CLR,,0.00,WeatherDisplay:10.37,2013-08-05 01:54:00,
2013-08-04 20:59:00,89.8,72.0,29.93,SE,144,11.5,11.5,56,0.00,CLR,,0.00,WeatherDisplay:10.37,2013-08-05 01:59:00,
2013-08-04 21:04:00,89.6,71.8,29.93,SE,137,13.8,13.8,56,0.00,CLR,,0.00,WeatherDisplay:10.37,2013-08-05 02:04:00,
2013-08-04 21:09:00,89.3,72.1,29.94,SSE,150,12.7,12.7,57,0.00,CLR,,0.00,WeatherDisplay:10.37,2013-08-05 02:09:00,
2013-08-04 21:14:00,89.2,72.0,29.94,SSE,165,16.1,16.1,57,0.00,CLR,,0.00,WeatherDisplay:10.37,2013-08-05 02:14:00,
2013-08-04 21:19:00,89.0,71.8,29.94,East,88,10.4,10.4,57,0.00,CLR,,0.00,WeatherDisplay:10.37,2013-08-05 02:19:00,
2013-08-04 21:24:00,88.8,72.1,29.94,ESE,107,10.4,10.4,58,0.00,CLR,,0.00,WeatherDisplay:10.37,2013-08-05 02:24:00,
2013-08-04 21:29:00,88.6,71.9,29.95,ENE,76,8.1,8.1,58,0.00,CLR,,0.00,WeatherDisplay:10.37,2013-08-05 02:29:00,
2013-08-04 21:34:00,88.3,72.2,29.95,SE,125,6.9,6.9,59,0.00,CLR,,0.00,WeatherDisplay:10.37,2013-08-05 02:34:00,
2013-08-04 21:39:00,88.0,71.9,29.95,ESE,109,6.9,6.9,59,0.00,CLR,,0.00,WeatherDisplay:10.37,2013-08-05 02:39:00,
2013-08-04 21:44:00,87.7,72.1,29.95,East,88,10.4,10.4,60,0.00,CLR,,0.00,WeatherDisplay:10.37,2013-08-05 02:44:00,
2013-08-04 21:49:00,87.5,71.9,29.95,ESE,122,10.4,10.4,60,0.00,CLR,,0.00,WeatherDisplay:10.37,2013-08-05 02:49:00,
2013-08-04 21:54:00,87.3,71.7,29.96,ESE,105,15.0,15.0,60,0.00,CLR,,0.00,WeatherDisplay:10.37,2013-08-05 02:54:00,
2013-08-04 21:59:00,87.1,71.5,29.96,ESE,103,11.5,11.5,60,0.00,CLR,,0.00,WeatherDisplay:10.37,2013-08-05 02:59:00,
2013-08-04 22:04:00,86.9,71.3,29.97,East,80,8.0,8.0,60,0.00,CLR,,0.00,WeatherDisplay:10.37,2013-08-05 03:04:00,
2013-08-04 22:09:00,86.7,71.6,29.97,East,92,6.9,6.9,61,0.00,CLR,,0.00,WeatherDisplay:10.37,2013-08-05 03:09:00,
2013-08-04 22:14:00,86.5,71.5,29.97,ESE,123,12.7,12.7,61,0.00,CLR,,0.00,WeatherDisplay:10.37,2013-08-05 03:14:00,
2013-08-04 22:19:00,86.2,71.6,29.97,ESE,105,16.1,16.1,62,0.00,CLR,,0.00,WeatherDisplay:10.37,2013-08-05 03:19:00,
2013-08-04 22:24:00,86.0,71.5,29.98,ESE,118,12.7,12.7,62,0.00,CLR,,0.00,WeatherDisplay:10.37,2013-08-05 03:24:00,
2013-08-04 22:29:00,85.8,71.7,29.98,ESE,108,13.8,13.8,63,0.00,CLR,,0.00,WeatherDisplay:10.37,2013-08-05 03:29:00,
2013-08-04 22:34:00,85.6,72.0,29.98,ESE,121,15.0,15.0,64,0.00,CLR,,0.00,WeatherDisplay:10.37,2013-08-05 03:34:00,
2013-08-04 22:39:00,85.4,71.8,29.99,ESE,103,12.7,12.7,64,0.00,CLR,,0.00,WeatherDisplay:10.37,2013-08-05 03:39:00,
2013-08-04 22:44:00,85.1,72.0,29.99,ESE,106,16.1,16.1,65,0.00,CLR,,0.00,WeatherDisplay:10.37,2013-08-05 03:44:00,
2013-08-04 22:49:00,84.9,71.8,29.99,ESE,112,13.8,13.8,65,0.00,CLR,,0.00,WeatherDisplay:10.37,2013-08-05 03:49:00,
2013-08-04 22:54:00,84.7,72.1,29.99,East,84,11.5,11.5,66,0.00,CLR,,0.00,WeatherDisplay:10.37,2013-08-05 03:54:00,
2013-08-04 22:59:00,84.5,71.9,29.99,SE,128,9.2,9.2,66,0.00,CLR,,0.00,WeatherDisplay:10.37,2013-08-05 03:59:00,
2013-08-04 23:01:00,84.4,71.8,29.99,ESE,106,8.1,8.1,66,0.00,CLR,,0.00,WeatherDisplay:10.37,2013-08-05 04:01:00,
2013-08-04 23:02:00,84.3,71.7,29.99,SE,138,5.8,5.8,66,0.00,CLR,,0.00,WeatherDisplay:10.37,2013-08-05 04:02:00,
2013-08-04 23:07:00,84.1,72.0,29.99,East,98,8.1,8.1,67,0.00,CLR,,0.00,WeatherDisplay:10.37,2013-08-05 04:07:00,
2013-08-04 23:12:00,83.8,71.7,29.99,SSE,155,8.1,8.1,67,0.00,CLR,,0.00,WeatherDisplay:10.37,2013-08-05 04:12:00,
2013-08-04 23:17:00,83.6,71.9,29.99,ESE,122,8.1,8.1,68,0.00,CLR,,0.00,WeatherDisplay:10.37,2013-08-05 04:17:00,
2013-08-04 23:22:00,83.4,71.7,29.99,East,90,3.5,3.5,68,0.00,CLR,,0.00,WeatherDisplay:10.37,2013-08-05 04:22:00,
2013-08-04 23:27:00,83.1,71.4,29.99,East,100,5.8,6.2,68,0.00,CLR,,0.00,WeatherDisplay:10.37,2013-08-05 04:27:00,
2013-08-04 23:32:00,82.9,71.7,29.99,ESE,109,6.9,6.9,69,0.00,CLR,,0.00,WeatherDisplay:10.37,2013-08-05 04:32:00,
2013-08-04 23:37:00,82.7,71.5,29.99,ESE,108,9.2,9.2,69,0.00,CLR,,0.00,WeatherDisplay:10.37,2013-08-05 04:37:00,
2013-08-04 23:42:00,82.5,71.3,29.99,East,88,8.1,8.1,69,0.00,CLR,,0.00,WeatherDisplay:10.37,2013-08-05 04:42:00,
2013-08-04 23:47:00,82.3,71.1,30.00,East,94,9.2,9.2,69,0.00,CLR,,0.00,WeatherDisplay:10.37,2013-08-05 04:47:00,
2013-08-04 23:52:00,82.2,71.0,30.00,SE,138,8.1,8.1,69,0.00,CLR,,0.00,WeatherDisplay:10.37,2013-08-05 04:52:00,
2013-08-04 23:57:00,82.0,70.8,30.00,ESE,104,5.8,5.8,69,0.00,CLR,,0.00,WeatherDisplay:10.37,2013-08-05 04:57:00,